sat.trackr.live / text

‹ back to catalog

STARLINK-2545

NORAD 48289 · 2021-036P

PAYLOAD ACTIVE UNKNOWN

§ Identity

Operator
Country
US
Launch date
2021-04-29
Launch site
AFETR
Launch vehicle
Mass (kg)
RCS (m²)

Purposes: comms

External: N2YO · Heavens-Above · Gunter

§ Orbital elements

Epoch: 2026-05-25T05:00:28.008000Z

Period
94.01 min
Inclination
53.1601°
Eccentricity
0.0001494
Mean motion
15.31689738 rev/d
Perigee alt
469.7 km
Apogee alt
471.8 km
Semi-major
6,848.9 km
B*
1.7566e-5
RAAN
79.7924°
Arg perigee
73.0360°
Mean anomaly
287.0805°
Rev number
28,012

§ Raw data

STARLINK-25451 48289U 21036P   26145.20865750  .00000180  00000+0  17566-4 0  99912 48289  53.1601  79.7924 0001494  73.0360 287.0805 15.31689738280128

JSON: /api/v1/satellites/48289 · /tle

For live sub-satellite position, see the globe view (requires WebGL).

§ Visibility from observer

Set your observer location to see the next 7 days of passes ≥ 10°. The values pass through the URL so the page stays shareable.

No JS? Fill the form by hand. The geolocation button needs JavaScript.